STARLINK-2628 (48359 NORAD) Tracking and Keplerian Element Data

This shows tracking and keplerian element data for the satellite.

Feedback or suggestion? Click here.




ElementValue
Catalog48359
NameSTARLINK-2628
Epoch Orbit1322
Epoch Day210.82828181
Epoch Year2021
RAAN0.7626
Inclination53.0546
Eccentricity0.0001514
Argument of Perigee102.1013
Mean Anonmoly258.0146
Mean Motion15.06405525
Decay Rate-8.14E-06
L11 48359U 21038G 21210.82828181 -.00000814 00000-0 -35773-4 0 9991
L22 48359 53.0546 0.7626 0001514 102.1013 258.0146 15.06405525 13221

Live tracking and technical data element details for STARLINK-2628 (NORAD 48359). STARLINK-2628 can be tracked NOW for your location showing map with azimuth and elevation plus other details from your city location.

Track the satellite on the map from your city or location and see movement details for azimuth, elevation, latitude, longitude, range, height, and movement on the map or in text.







IsCatalogInMostPopularTable: catalog: 48359, numindb: 29
Update: records affected: 1



GetName: 48359 STARLINK-2628

Hit Count: updated at: Sat, 31 Jul 2021 14:17:02 GMT